Wetbulb
72.97 71.59 73.64 72.67 63.69 58.11 54.08 55.99 59.31 57.39 57.55 60.02 61.75 61.39 59.89 59.05 57.23 54.35 69.61 69.35 70.82 71.67 73.72 74.85 76.46 76.11 74.95 75.70 75.45 74.39 74.81 73.93 73.26 72.56 73.13 72.76 73.74 73.39 74.19 74.78 75.07 74.94 75.45 75.15 75.13 75.52 75.40 75.19 75.37
70.40 70.19 72.44 68.53 54.83 50.45 52.78 58.19 57.55 58.37 60.93 60.67 60.13 63.00 61.91 60.10 65.88 66.54 66.64 70.21 70.52 72.50 72.47 73.83 76.25 76.16 75.94 76.06 75.81 74.76 74.10 74.60 74.18 72.97 73.11 71.74 72.31 72.36 73.70 73.53 74.34 74.56 74.45 74.68 74.97 75.07 75.16 75.06 75.23
70.24 69.84 66.65 63.54 53.90 51.15 52.55 57.07 59.15 58.89 58.80 58.69 59.04 62.50 60.73 60.82 66.42 65.96 68.48 70.06 70.00 70.64 73.90 74.41 76.36 75.47 75.84 75.55 75.03 74.26 73.10 74.07 73.98 73.29 72.13 70.89 71.65 71.70 73.05 72.64 72.86 73.10 73.17 73.59 73.93 74.37 74.68 74.57 74.92
67.68 69.57 66.70 56.97 52.78 55.29 54.95 55.44 56.60 57.40 56.38 56.58 60.56 57.25 60.94 66.41 67.95 67.73 69.63 70.17 69.53 70.84 73.74 75.68 76.07 75.42 75.30 74.87 73.88 73.28 72.96 73.49 73.23 72.25 70.37 70.61 71.32 70.48 71.89 71.82 71.57 71.13 71.79 71.82 72.64 73.26 73.78 74.33 74.32
68.04 65.50 57.22 54.20 53.24 54.48 56.27 56.92 56.23 54.46 55.44 53.35 56.64 55.98 57.55 65.17 70.71 69.80 69.05 69.79 69.17 71.36 72.63 73.76 75.68 75.11 74.25 73.80 73.40 72.76 72.20 73.42 72.44 70.76 69.75 69.84 69.98 69.73 69.65 70.39 70.65 70.75 70.35 70.77 71.07 72.32 74.08 73.11 73.41
63.92 62.71 54.11 50.86 51.77 53.17 53.79 54.65 54.48 52.82 52.74 52.65 53.31 55.33 55.14 62.95 69.44 69.78 70.05 68.91 70.05 69.31 72.45 72.67 75.56 75.72 75.21 74.51 73.67 73.66 73.28 73.42 72.07 70.40 69.61 69.19 69.56 69.25 68.51 67.88 68.70 69.18 69.62 69.33 69.38 70.81 72.48 73.18 72.83
63.38 59.31 54.74 52.50 51.99 52.01 52.75 54.05 51.60 52.68 51.63 51.53 53.55 53.81 54.54 57.57 64.29 71.25 68.81 69.90 69.97 70.17 70.08 72.17 72.47 74.49 76.45 75.95 75.23 74.39 73.46 73.67 72.33 70.80 70.32 69.51 68.99 68.98 68.57 67.60 66.84 66.83 67.14 67.47 67.51 69.07 70.88 71.95 73.08
62.62 59.97 56.84 53.28 51.39 51.34 54.70 54.95 54.88 52.27 50.77 55.52 55.41 50.08 50.55 57.12 63.19 70.19 69.00 69.10 69.71 69.88 69.67 69.73 73.17 73.45 73.23 73.58 75.91 75.53 74.47 73.75 73.06 72.37 71.76 71.11 70.17 69.71 69.34 68.72 67.82 66.56 66.46 66.74 66.50 67.55 68.92 69.35 70.37
66.38 56.36 51.46 52.24 53.52 52.13 55.51 53.24 54.52 55.40 52.66 53.15 54.08 54.38 56.88 60.79 64.38 66.81 67.30 66.92 66.57 65.76 65.06 64.82 65.45 68.04 71.40 72.33 74.41 74.32 74.97 74.69 74.67 73.51 73.28 71.98 68.09 67.83 68.36 69.19 69.27 67.28 66.47 66.80 66.72 66.35 67.70 67.99 68.61
59.01 55.64 53.31 54.82 54.34 53.45 54.38 53.34 53.13 53.30 52.32 51.56 52.00 55.35 58.26 60.06 60.33 60.10 60.06 59.97 60.18 60.05 61.05 61.71 62.61 64.26 65.92 72.65 72.53 72.03 73.28 71.86 71.61 71.55 71.09 69.90 68.88 66.96 67.34 68.57 68.61 67.52 66.93 67.31 67.02 66.78 66.31 66.72 64.04
58.28 53.70 54.81 55.27 55.67 54.47 54.21 52.50 53.93 53.08 49.38 49.84 49.44 52.03 54.81 55.93 56.06 56.29 56.74 57.12 56.61 57.10 57.83 59.32 60.44 63.14 66.63 67.83 72.31 72.13 71.53 71.40 71.52 71.79 70.67 70.38 70.78 68.07 65.51 65.06 64.92 64.06 66.78 63.46 64.98 63.79 61.72 58.82 59.95
54.18 54.83 56.26 57.16 55.25 54.06 53.24 53.82 50.34 50.77 49.74 51.99 52.06 52.13 52.83 52.17 52.08 52.44 52.38 53.17 53.27 54.00 54.50 55.96 58.09 60.83 64.33 68.31 69.67 69.55 69.50 70.22 69.96 69.76 69.83 69.00 68.82 68.88 69.33 68.40 64.55 63.86 62.86 62.53 60.20 60.19 60.12 59.43 57.85
54.65 53.30 53.41 54.10 54.93 53.67 54.50 51.84 49.79 48.59 50.77 51.79 52.80 53.13 50.95 50.79 50.33 50.76 51.66 51.90 50.90 50.34 50.63 50.99 51.93 54.69 57.08 59.33 62.57 65.70 67.92 68.22 68.83 68.37 68.14 67.80 67.09 67.41 67.97 67.94 68.53 67.81 62.72 60.77 59.40 58.21 56.95 56.07 56.10
54.97 53.48 52.11 52.99 52.45 52.96 50.94 50.23 50.58 49.51 51.08 50.83 51.39 50.16 49.02 49.19 49.22 48.65 49.33 49.05 48.17 48.24 48.56 49.67 50.30 50.01 50.78 51.23 53.77 55.54 55.57 59.60 64.60 64.61 64.84 66.29 66.04 65.77 66.00 66.03 66.76 66.87 66.98 66.66 63.37 59.42 57.12 55.12 54.50
53.05 49.02 50.10 51.15 51.72 51.37 52.70 48.16 47.39 49.71 50.77 49.46 49.25 47.58 48.30 48.20 48.46 46.81 48.06 47.91 47.96 48.09 49.27 49.36 50.31 50.52 49.61 49.99 51.19 51.65 51.83 53.02 52.74 53.87 55.02 54.81 57.43 58.69 62.14 63.65 64.64 65.99 66.10 65.55 65.45 63.93 60.47 56.15 55.51
48.59 47.99 44.71 50.06 51.27 51.23 49.83 43.66 49.63 49.62 48.89 48.06 48.23 46.51 46.96 47.09 47.42 46.26 47.53 47.94 48.34 48.14 48.38 49.79 52.05 50.08 49.59 49.24 49.88 50.19 50.30 50.68 50.64 51.13 51.44 51.62 52.14 52.57 52.17 53.23 58.71 63.85 63.88 63.66 64.07 63.95 62.72 59.88 55.33
47.76 41.85 44.61 47.39 51.61 50.37 47.84 45.52 48.95 49.31 48.79 47.94 46.40 46.29 46.44 45.70 46.20 45.87 46.89 46.32 47.29 47.84 47.97 48.51 49.06 48.85 49.50 49.34 49.30 49.46 49.70 49.45 49.37 49.23 49.51 49.86 51.45 52.05 50.55 51.03 51.47 52.91 59.77 61.21 61.16 61.64 61.67 61.43 60.44
43.26 43.73 45.20 44.99 48.03 48.74 46.89 45.61 48.13 48.35 47.86 47.19 46.57 45.98 45.74 45.51 46.01 46.69 46.73 46.11 46.91 47.32 47.64 47.92 48.36 47.81 48.14 48.58 48.60 48.53 48.49 48.52 48.76 48.70 48.90 49.70 49.52 49.89 49.66 50.22 50.51 50.60 50.90 53.00 58.86 58.55 59.19 60.57 60.36
46.23 44.40 43.84 46.46 49.33 47.71 45.97 45.98 47.68 47.91 46.90 46.08 46.16 45.44 45.47 45.68 46.89 47.48 46.91 45.31 44.79 47.10 46.89 46.68 47.35 46.95 46.91 46.80 45.82 45.57 45.50 46.43 47.07 48.06 49.25 49.27 49.34 49.67 48.10 48.15 49.43 49.80 49.39 49.60 50.76 51.98 55.28 55.62 56.87
46.82 44.72 44.28 48.09 48.77 46.31 44.96 44.76 48.07 47.55 46.23 46.61 46.51 45.31 45.42 45.60 45.31 45.83 47.13 46.05 47.09 47.06 46.99 46.86 46.85 47.25 46.92 46.99 46.38 45.87 45.32 46.11 46.94 48.23 48.77 49.45 49.04 49.00 48.85 46.86 47.40 48.61 48.00 48.13 48.45 48.97 49.66 52.38 54.47
46.39 44.80 44.68 43.63 47.45 47.57 45.24 43.14 45.69 48.12 47.34 47.23 47.24 47.01 46.46 45.62 44.83 45.04 45.20 46.14 47.36 46.74 46.72 47.32 47.25 47.29 47.28 47.42 46.93 46.62 46.11 46.13 45.50 46.29 46.93 47.86 48.76 48.65 48.40 47.50 46.94 46.46 46.99 46.86 47.11 47.33 47.59 47.11 51.40
43.54 47.41 46.63 45.43 43.04 38.05 44.81 34.73 42.35 44.82 43.74 44.74 44.95 44.93 45.18 45.23 45.75 45.48 44.66 43.64 46.63 45.91 47.52 47.49 47.30 47.13 48.25 46.56 45.43 44.03 43.05 42.30 43.65 44.47 45.49 46.53 47.06 47.17 47.96 47.66 46.91 46.34 46.55 45.46 45.30 47.47 45.27 45.65 45.87
45.06 48.29 46.12 45.48 42.03 39.93 40.64 36.24 39.90 44.40 41.33 42.34 43.60 44.63 44.99 45.31 45.55 45.57 45.62 44.51 43.98 45.99 46.09 47.43 47.76 47.71 46.58 45.85 45.23 44.08 43.01 43.54 43.94 44.22 44.22 44.86 45.86 46.42 47.23 47.83 47.43 45.81 45.80 46.10 45.53 44.87 44.35 44.34 43.49
48.12 45.36 45.08 43.95 40.34 32.59 39.13 38.72 38.77 40.61 42.99 43.38 44.33 44.88 45.50 45.59 45.11 44.76 44.49 44.85 45.08 46.57 47.13 47.44 46.72 46.24 46.11 45.62 44.76 43.48 42.38 42.35 42.80 42.72 43.42 43.83 44.17 44.95 46.26 47.05 46.10 45.75 45.73 45.99 45.94 45.54 44.53 44.31 44.38
46.05 41.40 34.78 33.17 32.99 33.91 42.22 38.84 38.52 42.87 43.44 43.60 44.65 44.33 45.01 44.91 44.07 43.96 43.54 44.46 44.70 44.66 46.31 47.08 45.99 45.08 45.08 44.11 43.78 43.13 42.65 42.28 41.54 41.87 42.43 41.94 43.32 43.51 43.83 44.86 44.84 45.42 45.82 46.08 46.44 45.52 44.21 43.63 43.83
44.10 41.20 34.68 29.34 30.87 33.79 41.17 34.60 39.17 43.58 44.37 43.52 45.09 45.16 44.85 44.05 43.84 43.98 44.51 44.64 44.40 45.29 45.79 45.80 44.78 43.96 44.39 43.63 42.74 42.50 42.09 41.64 41.94 41.85 42.91 43.32 43.52 44.24 44.27 45.37 45.09 45.40 45.80 46.11 45.71 45.37 44.71 44.26 44.45
42.21 37.13 41.75 35.78 37.02 32.82 36.84 39.57 40.83 41.70 41.30 41.53 42.08 43.28 42.95 43.45 43.87 43.98 44.47 44.84 44.55 44.80 45.09 44.46 43.84 43.69 43.54 42.47 41.46 40.77 41.20 41.39 42.02 42.43 43.37 43.75 43.96 45.40 45.54 44.94 45.09 45.37 45.67 45.58 45.05 44.61 43.59 44.35 45.05
41.09 42.98 35.70 35.52 29.13 27.55 34.74 35.82 35.04 37.10 38.72 40.36 40.47 40.69 42.57 43.60 43.32 43.60 43.96 44.45 44.50 44.12 44.31 44.15 43.86 42.79 41.70 41.14 40.83 42.10 41.06 41.69 42.46 42.73 42.12 42.53 43.04 43.32 43.26 43.45 43.93 44.53 45.13 44.42 43.67 43.69 44.30 44.09 44.82
38.68 37.09 37.85 36.80 34.78 28.74 27.60 32.63 38.34 40.59 41.20 40.67 41.04 42.55 43.31 43.62 43.97 43.72 43.64 43.60 44.38 44.48 43.56 43.19 42.41 41.10 40.55 40.95 40.85 40.50 41.09 41.95 42.42 42.17 42.08 42.25 42.48 42.52 42.44 42.66 42.74 42.85 43.15 44.05 44.14 43.98 44.26 43.16 44.09
40.48 39.09 38.90 32.64 32.04 34.26 30.60 32.12 41.47 40.93 41.59 42.02 41.51 43.26 43.13 43.55 44.12 44.11 43.46 43.25 43.32 42.56 42.73 41.82 40.89 39.94 40.19 40.54 40.54 40.99 41.80 41.87 41.25 41.59 42.07 42.48 41.93 42.56 42.23 41.98 41.56 41.54 41.83 42.32 42.70 43.30 43.74 42.88 43.30
MSLP
1009.26 1008.03 1008.06 1008.30 1008.95 1008.49 1008.28 1008.04 1007.47 1007.26 1006.97 1006.64 1006.42 1007.15 1008.55 1009.26 1009.70 1011.38 1011.78 1011.64 1012.09 1012.72 1013.58 1013.91 1014.09 1014.20 1014.40 1014.52 1014.57 1014.71 1014.79 1014.83 1014.89 1015.00 1015.04 1015.05 1015.01 1014.97 1014.90 1014.87 1014.90 1014.89 1014.89 1014.88 1014.90 1014.85 1014.86 1014.86 1014.87
1009.24 1008.42 1008.27 1008.40 1009.89 1009.30 1008.39 1007.89 1007.75 1007.33 1006.83 1006.57 1006.79 1007.57 1008.94 1010.06 1010.38 1011.33 1011.69 1011.71 1011.90 1012.42 1013.20 1013.98 1014.31 1014.44 1014.51 1014.61 1014.78 1014.92 1014.99 1015.01 1014.98 1015.08 1015.20 1015.21 1015.18 1015.20 1015.15 1015.08 1015.14 1015.14 1015.16 1015.14 1015.11 1015.08 1015.09 1015.11 1015.12
1009.20 1008.19 1008.32 1008.06 1009.20 1009.46 1008.41 1008.06 1007.64 1007.30 1007.18 1006.92 1007.32 1008.16 1010.02 1011.24 1010.79 1011.40 1011.68 1011.71 1011.78 1012.22 1013.05 1013.93 1014.44 1014.63 1014.67 1014.74 1014.88 1015.05 1015.14 1015.25 1015.28 1015.33 1015.39 1015.37 1015.35 1015.45 1015.43 1015.33 1015.41 1015.49 1015.46 1015.43 1015.40 1015.32 1015.25 1015.22 1015.27
1008.36 1008.03 1007.84 1007.50 1008.46 1008.59 1008.32 1008.08 1007.66 1007.39 1007.53 1007.62 1008.01 1010.08 1011.45 1011.88 1011.27 1011.58 1011.61 1011.73 1012.07 1012.56 1013.46 1014.17 1014.51 1014.72 1014.83 1014.93 1015.08 1015.25 1015.31 1015.44 1015.51 1015.52 1015.56 1015.53 1015.59 1015.63 1015.60 1015.55 1015.60 1015.64 1015.71 1015.69 1015.70 1015.61 1015.48 1015.36 1015.27
1008.04 1007.92 1007.54 1007.62 1008.35 1008.51 1008.35 1008.18 1008.05 1008.03 1008.12 1008.65 1008.86 1010.94 1012.05 1012.46 1011.59 1011.71 1011.70 1011.73 1012.08 1012.73 1013.45 1014.20 1014.50 1014.71 1014.88 1015.03 1015.17 1015.31 1015.35 1015.45 1015.60 1015.65 1015.68 1015.67 1015.69 1015.79 1015.84 1015.85 1015.84 1015.84 1015.86 1015.86 1015.92 1015.86 1015.63 1015.53 1015.47
1008.06 1007.54 1007.43 1007.66 1008.34 1008.55 1008.45 1008.38 1008.42 1008.63 1009.21 1010.00 1010.07 1011.27 1012.91 1012.97 1012.34 1012.00 1011.73 1011.83 1012.15 1012.70 1013.18 1013.78 1014.14 1014.39 1014.66 1014.87 1015.05 1015.17 1015.17 1015.21 1015.52 1015.67 1015.77 1015.80 1015.79 1015.85 1015.92 1015.97 1015.97 1016.00 1016.01 1016.05 1016.07 1016.03 1015.88 1015.68 1015.64
1008.20 1007.98 1007.65 1007.93 1008.47 1008.85 1009.01 1008.88 1009.38 1009.73 1010.51 1011.14 1011.41 1011.72 1013.23 1013.30 1012.70 1012.07 1011.95 1012.10 1012.29 1012.48 1012.62 1013.00 1013.63 1013.89 1014.01 1014.34 1014.70 1014.86 1015.05 1015.24 1015.43 1015.60 1015.72 1015.82 1015.88 1015.90 1015.94 1015.99 1016.03 1016.05 1016.07 1016.09 1016.10 1016.07 1016.05 1015.95 1015.79
1008.69 1008.35 1007.94 1008.22 1008.59 1009.23 1009.53 1009.55 1010.15 1010.61 1011.87 1011.90 1012.08 1013.05 1013.63 1013.53 1012.77 1012.26 1012.20 1012.14 1012.28 1012.53 1012.48 1012.30 1012.74 1013.34 1013.61 1013.63 1014.10 1014.51 1014.95 1015.15 1015.34 1015.46 1015.50 1015.58 1015.70 1015.76 1015.83 1015.89 1015.99 1016.07 1016.13 1016.17 1016.17 1016.16 1016.11 1016.13 1016.00
1008.55 1008.73 1008.56 1008.75 1008.92 1009.55 1009.82 1010.06 1010.71 1011.50 1012.34 1013.07 1013.53 1013.85 1013.86 1013.36 1012.64 1012.24 1012.26 1012.52 1012.78 1013.03 1013.36 1013.35 1013.07 1013.63 1013.64 1013.70 1013.89 1014.92 1014.98 1015.23 1015.27 1015.35 1015.44 1015.40 1015.26 1015.23 1015.40 1015.68 1015.81 1016.01 1016.10 1016.18 1016.16 1016.13 1016.10 1016.13 1016.12
1008.48 1008.80 1009.31 1009.45 1009.59 1009.93 1010.44 1010.96 1011.49 1011.99 1012.75 1013.66 1014.20 1014.23 1014.02 1013.77 1013.56 1013.46 1013.45 1013.69 1014.05 1014.44 1014.45 1014.34 1013.90 1013.62 1013.67 1013.69 1014.34 1014.89 1014.94 1015.28 1015.16 1015.25 1015.22 1015.59 1015.21 1014.86 1015.11 1015.32 1015.58 1015.69 1015.83 1016.02 1016.09 1016.07 1016.05 1015.99 1016.01
1008.62 1009.15 1009.82 1010.10 1010.45 1010.65 1010.88 1011.72 1012.43 1012.72 1013.88 1014.58 1014.88 1014.75 1014.62 1014.51 1014.53 1014.60 1014.76 1014.89 1015.28 1015.51 1015.41 1015.02 1014.53 1014.06 1013.89 1014.00 1014.86 1015.28 1015.41 1015.45 1015.47 1015.55 1015.76 1015.62 1014.96 1014.97 1014.72 1014.84 1015.13 1015.37 1015.42 1015.79 1015.64 1015.82 1015.88 1015.81 1015.64
1009.11 1009.73 1009.96 1010.57 1011.00 1011.21 1011.38 1012.08 1013.25 1013.72 1014.57 1015.03 1015.26 1015.04 1014.94 1015.15 1015.21 1015.34 1015.57 1015.72 1015.86 1016.10 1016.01 1015.61 1015.12 1014.92 1014.75 1014.80 1015.32 1015.83 1015.98 1015.89 1015.87 1015.82 1015.67 1015.62 1015.69 1015.42 1015.37 1015.27 1015.08 1014.91 1015.09 1015.29 1015.27 1015.35 1015.29 1015.21 1015.13
1008.92 1009.92 1010.56 1011.13 1011.39 1011.61 1011.99 1012.68 1013.65 1014.60 1015.03 1015.29 1015.43 1015.37 1015.44 1015.56 1015.67 1015.77 1015.82 1016.02 1016.32 1016.53 1016.52 1016.23 1015.94 1015.77 1015.63 1015.74 1015.86 1016.03 1016.19 1016.26 1016.22 1016.11 1016.10 1015.94 1015.96 1015.93 1015.68 1015.72 1015.32 1015.07 1014.72 1014.66 1014.82 1014.88 1014.82 1014.84 1014.87
1009.45 1009.93 1010.71 1011.30 1011.71 1012.14 1012.68 1013.48 1013.93 1014.78 1015.03 1015.24 1015.43 1015.68 1015.88 1015.96 1016.03 1016.16 1016.20 1016.38 1016.59 1016.88 1016.88 1016.70 1016.54 1016.31 1016.23 1016.47 1016.34 1016.46 1016.40 1016.30 1016.29 1016.27 1016.24 1016.16 1016.19 1016.18 1016.09 1015.97 1015.70 1015.56 1015.45 1015.32 1015.12 1014.93 1014.70 1014.61 1014.42
1009.87 1010.33 1010.81 1011.19 1011.68 1012.09 1012.64 1013.48 1013.73 1014.31 1014.88 1015.20 1015.43 1015.78 1016.13 1016.30 1016.37 1016.57 1016.57 1016.60 1016.72 1016.99 1017.08 1017.04 1016.98 1016.87 1016.94 1016.92 1016.75 1016.77 1016.73 1016.65 1016.65 1016.50 1016.40 1016.35 1016.35 1016.29 1016.22 1016.18 1016.07 1015.76 1015.58 1015.49 1015.37 1015.10 1014.85 1014.61 1014.38
1010.05 1010.27 1010.55 1010.48 1011.21 1012.10 1012.81 1012.68 1013.23 1014.20 1014.71 1015.05 1015.37 1015.84 1016.26 1016.44 1016.62 1016.86 1016.85 1016.89 1016.94 1016.98 1017.23 1017.32 1017.40 1017.41 1017.48 1017.36 1017.26 1017.20 1017.12 1017.08 1016.98 1016.85 1016.73 1016.65 1016.56 1016.46 1016.52 1016.48 1016.29 1015.77 1015.63 1015.67 1015.67 1015.56 1015.30 1015.04 1014.59
1009.84 1009.84 1009.88 1010.70 1010.98 1011.73 1012.66 1012.74 1013.36 1014.14 1014.56 1014.91 1015.19 1015.71 1016.14 1016.45 1016.69 1016.99 1017.08 1017.13 1017.14 1017.22 1017.35 1017.50 1017.66 1017.74 1017.77 1017.71 1017.68 1017.70 1017.59 1017.52 1017.32 1017.16 1017.13 1016.95 1016.79 1016.63 1016.57 1016.60 1016.43 1016.02 1015.78 1015.78 1015.79 1015.70 1015.81 1015.56 1015.03
1009.77 1009.91 1009.69 1009.94 1010.91 1011.43 1012.10 1012.53 1013.18 1013.70 1014.23 1014.72 1015.12 1015.42 1015.95 1016.35 1016.70 1017.00 1017.20 1017.24 1017.28 1017.27 1017.35 1017.55 1017.80 1018.03 1018.10 1018.11 1018.14 1018.21 1018.16 1017.91 1017.68 1017.55 1017.35 1017.04 1016.87 1016.76 1016.70 1016.60 1016.40 1016.13 1016.08 1015.86 1015.76 1015.67 1015.56 1015.55 1015.42
1010.21 1010.26 1010.23 1010.20 1010.94 1011.61 1011.94 1012.09 1012.24 1013.11 1013.91 1014.55 1015.00 1015.17 1015.64 1015.98 1016.38 1016.98 1017.24 1017.34 1017.34 1017.32 1017.54 1017.76 1018.03 1018.21 1018.26 1018.37 1018.57 1018.59 1018.69 1018.16 1018.00 1017.70 1017.28 1017.01 1016.79 1016.63 1016.57 1016.54 1016.33 1016.06 1016.05 1015.85 1015.62 1015.44 1015.47 1015.43 1015.28
1010.67 1010.64 1010.54 1010.44 1011.13 1011.79 1011.77 1011.58 1011.38 1012.12 1013.14 1014.02 1014.60 1014.91 1015.26 1015.66 1016.28 1016.76 1017.17 1017.29 1017.39 1017.52 1017.59 1017.89 1018.15 1018.20 1018.27 1018.38 1018.40 1018.42 1018.33 1018.16 1017.92 1017.56 1017.18 1016.86 1016.66 1016.45 1016.24 1016.25 1016.26 1015.99 1015.77 1015.65 1015.52 1015.45 1015.45 1015.32 1015.18
1010.96 1011.09 1011.06 1011.41 1011.53 1011.54 1011.81 1011.34 1010.29 1011.30 1012.61 1013.61 1014.12 1014.59 1014.85 1015.33 1015.83 1016.34 1016.63 1016.97 1017.16 1017.47 1017.59 1017.86 1018.13 1018.26 1018.32 1018.32 1018.31 1018.28 1018.26 1018.10 1017.89 1017.51 1017.21 1016.87 1016.49 1016.20 1015.90 1015.72 1015.68 1015.61 1015.46 1015.36 1015.26 1015.17 1015.30 1015.28 1014.95
1011.53 1011.90 1011.98 1012.25 1012.53 1012.26 1012.16 1011.49 1010.44 1011.06 1012.39 1013.29 1013.96 1014.35 1014.73 1015.02 1015.53 1015.79 1016.19 1016.62 1016.94 1017.32 1017.47 1017.64 1018.02 1018.23 1018.28 1018.26 1018.35 1018.52 1018.39 1018.23 1017.81 1017.35 1016.90 1016.57 1016.15 1015.90 1015.60 1015.28 1015.07 1015.06 1014.98 1014.84 1014.71 1014.61 1014.67 1014.79 1015.01
1012.41 1012.71 1012.88 1013.04 1013.11 1013.03 1012.11 1012.26 1010.59 1011.02 1012.27 1012.87 1013.47 1014.11 1014.56 1014.91 1015.45 1015.91 1016.18 1016.52 1016.98 1017.38 1017.71 1017.92 1018.14 1018.26 1018.21 1018.21 1018.20 1018.24 1018.21 1017.90 1017.34 1017.03 1016.66 1016.37 1016.02 1015.62 1015.23 1014.95 1014.63 1014.62 1014.45 1014.23 1014.15 1014.15 1014.16 1014.18 1014.35
1012.93 1013.16 1013.11 1013.36 1013.50 1013.00 1011.13 1011.59 1010.73 1010.90 1010.99 1011.83 1012.78 1013.61 1014.29 1014.81 1015.26 1015.63 1016.03 1016.43 1016.98 1017.35 1017.72 1018.04 1018.27 1018.26 1018.08 1018.00 1017.90 1017.85 1017.85 1017.54 1017.18 1016.81 1016.48 1016.06 1015.66 1015.30 1014.99 1014.54 1014.46 1014.26 1013.99 1013.71 1013.48 1013.35 1013.38 1013.57 1013.68
1013.43 1013.58 1013.33 1013.74 1013.56 1012.29 1011.27 1011.49 1010.26 1010.19 1010.44 1010.87 1011.72 1012.89 1013.73 1014.40 1015.10 1015.70 1016.18 1016.60 1017.02 1017.34 1017.73 1018.01 1018.09 1018.08 1017.83 1017.73 1017.62 1017.46 1017.27 1017.03 1016.86 1016.55 1016.26 1015.95 1015.54 1015.18 1014.79 1014.47 1014.11 1013.85 1013.71 1013.41 1013.15 1012.89 1012.73 1012.74 1012.90
1013.46 1013.63 1013.74 1013.48 1012.86 1012.31 1011.91 1011.22 1010.24 1010.42 1010.71 1011.08 1011.33 1012.37 1013.44 1014.29 1015.01 1015.69 1016.15 1016.58 1016.97 1017.33 1017.53 1017.67 1017.75 1017.74 1017.60 1017.44 1017.32 1017.08 1016.87 1016.68 1016.52 1016.32 1016.01 1015.59 1015.21 1014.77 1014.36 1014.03 1013.60 1013.37 1013.15 1012.89 1012.60 1012.35 1012.25 1012.24 1012.10
1013.82 1014.12 1014.12 1013.93 1013.00 1012.56 1011.50 1010.71 1011.06 1011.25 1011.54 1011.72 1012.19 1012.87 1013.60 1014.45 1015.08 1015.68 1016.12 1016.58 1016.94 1017.10 1017.23 1017.35 1017.44 1017.40 1017.22 1017.04 1016.91 1016.82 1016.68 1016.56 1016.35 1015.97 1015.63 1015.20 1014.78 1014.35 1013.85 1013.62 1013.23 1012.85 1012.44 1012.11 1011.94 1011.77 1011.54 1011.45 1011.37
1014.62 1014.81 1014.55 1014.51 1014.06 1013.08 1011.51 1011.17 1011.57 1011.88 1012.18 1012.43 1012.84 1013.57 1014.17 1014.69 1015.26 1015.71 1016.11 1016.42 1016.59 1016.75 1016.95 1017.08 1017.12 1017.03 1016.90 1016.79 1016.73 1016.56 1016.43 1016.25 1016.01 1015.70 1015.37 1015.00 1014.53 1014.17 1013.75 1013.32 1012.93 1012.33 1011.78 1011.38 1011.08 1010.83 1010.69 1010.51 1010.40
1014.91 1014.72 1014.83 1014.96 1014.70 1014.08 1013.18 1012.26 1011.42 1011.55 1011.87 1012.29 1012.80 1013.23 1013.69 1014.38 1014.94 1015.51 1015.75 1016.11 1016.36 1016.51 1016.66 1016.77 1016.88 1016.92 1016.87 1016.63 1016.44 1016.31 1016.17 1015.97 1015.74 1015.40 1014.99 1014.56 1014.05 1013.63 1013.16 1012.78 1012.37 1011.95 1011.48 1010.95 1010.20 1009.73 1009.43 1009.31 1009.30
1014.71 1014.62 1014.58 1015.10 1015.20 1014.93 1014.21 1012.73 1011.82 1012.09 1012.30 1012.74 1013.09 1013.38 1013.93 1014.22 1014.63 1015.01 1015.44 1015.90 1016.27 1016.46 1016.54 1016.75 1016.83 1016.85 1016.71 1016.45 1016.31 1016.21 1015.99 1015.71 1015.36 1014.98 1014.48 1013.99 1013.58 1013.31 1012.91 1012.36 1011.88 1011.51 1011.13 1010.67 1010.00 1009.31 1009.08 1008.59 1008.20
Wind_Speed
15 11 1 2 3 1 6 7 10 11 8 6 5 18 19 14 10 5 3 5 9 13 11 9 8 6 5 5 8 7 8 8 7 7 8 8 8 9 9 11 11 12 13 12 11 10 9 9 11
8 12 1 3 7 6 5 11 8 7 3 5 9 20 19 18 13 9 6 6 8 14 11 10 8 7 4 10 8 9 5 7 5 7 7 7 7 8 10 9 11 11 10 11 12 11 10 8 9
9 10 2 5 4 5 8 9 3 7 8 8 7 15 7 9 12 5 6 8 7 8 12 12 7 6 4 6 6 5 4 7 8 7 7 6 6 8 8 8 9 9 9 10 10 10 9 7 6
4 2 4 1 9 8 9 6 9 7 8 9 10 13 7 10 4 8 7 8 9 11 13 10 8 5 6 5 5 4 3 4 5 5 5 5 6 7 7 7 7 7 7 7 8 9 8 7 4
3 4 4 8 9 8 7 5 5 6 4 10 8 9 7 7 6 8 4 8 7 13 12 9 9 6 4 3 3 2 2 4 3 4 4 4 4 5 6 6 7 7 7 7 7 8 8 3 3
4 3 4 7 9 7 6 7 6 8 12 12 9 8 6 6 8 4 2 7 10 6 14 11 12 10 7 5 4 1 3 3 3 1 1 2 2 2 3 4 4 5 6 6 7 6 6 3 2
4 4 3 8 7 7 6 7 8 8 12 10 9 7 8 9 8 6 3 7 8 7 5 12 11 11 12 11 8 6 4 4 4 2 2 2 3 3 2 2 2 3 4 4 5 4 4 5 4
3 2 2 6 6 5 2 4 6 9 10 5 11 6 4 7 9 1 3 5 8 5 1 3 12 12 10 10 13 11 5 4 5 5 6 6 6 7 7 6 5 2 2 3 4 4 3 3 4
1 3 4 4 3 6 2 3 7 9 11 13 7 8 3 5 6 2 5 8 8 11 13 12 12 3 4 7 7 5 5 5 7 7 9 7 5 7 10 7 7 4 4 5 5 5 5 5 6
1 3 4 5 6 5 6 5 7 1 9 9 8 7 7 8 8 9 10 8 10 10 9 8 8 7 7 4 6 4 2 1 2 4 3 4 7 5 6 8 9 6 6 7 8 8 8 8 4
4 3 5 4 7 6 3 7 5 3 5 5 5 5 6 8 8 8 8 8 8 7 6 8 8 8 9 7 6 5 4 4 4 7 5 4 5 3 2 4 4 4 8 4 6 6 4 7 5
5 5 3 3 3 3 3 7 4 8 6 7 3 3 6 8 8 8 8 7 7 8 7 8 9 8 9 5 6 5 5 5 5 5 8 5 4 5 4 5 2 5 4 6 5 4 6 7 4
4 7 4 3 2 5 3 4 6 6 7 6 5 4 6 7 8 7 7 8 8 8 8 8 9 8 7 7 5 3 3 2 3 4 5 5 5 6 6 6 6 6 2 3 3 3 4 5 6
3 4 7 5 5 4 6 4 4 6 7 7 7 6 6 6 6 6 7 7 9 8 8 8 8 8 8 7 7 4 5 4 2 2 2 3 3 3 4 5 5 6 5 7 6 5 4 5 5
3 6 5 6 6 5 3 6 9 12 9 8 8 7 7 6 6 7 6 6 8 7 8 8 8 9 9 7 6 5 4 5 5 5 7 7 5 5 3 3 3 4 5 6 7 7 6 5 4
5 8 6 11 10 6 4 5 8 9 9 8 9 9 6 5 7 6 5 6 7 7 7 7 7 8 8 8 6 5 5 5 4 5 5 7 7 6 6 5 4 4 2 3 4 6 7 6 5
7 6 10 5 9 7 8 3 7 9 8 8 7 9 8 7 7 6 5 5 6 6 6 7 7 8 8 8 6 7 8 5 4 5 5 7 7 7 4 4 5 7 3 2 3 3 3 7 8
6 4 8 1 8 5 7 10 11 11 9 8 8 8 8 8 7 7 4 4 4 3 5 6 6 7 7 5 5 5 5 5 5 5 4 7 4 6 5 4 5 6 4 4 3 4 3 4 5
7 8 8 8 6 2 7 11 7 13 8 7 7 7 8 9 9 7 5 2 2 2 5 5 7 6 4 4 3 3 4 4 4 5 8 7 5 6 5 4 5 5 4 5 5 3 4 3 2
7 9 9 2 7 2 7 12 9 15 11 10 9 8 8 7 9 8 8 5 2 4 1 4 6 5 4 2 2 2 3 3 4 4 6 6 7 7 5 5 6 6 4 5 5 4 3 3 2
7 7 7 7 2 8 7 12 14 10 10 8 7 7 7 9 8 9 9 8 7 5 1 4 4 5 4 5 2 3 4 4 4 4 4 5 8 7 7 7 6 6 4 4 4 4 5 4 4
7 8 6 6 5 4 3 7 4 12 9 9 9 8 8 8 6 1 2 2 0 2 4 3 2 5 5 6 4 5 4 5 4 4 4 6 7 8 8 7 7 6 5 6 5 4 4 2 4
4 4 4 5 7 8 9 3 4 11 7 10 10 9 8 7 7 7 7 4 2 3 3 5 5 7 6 6 6 4 6 4 4 5 8 8 7 8 8 10 11 7 5 6 6 5 5 4 3
3 5 8 4 4 4 11 8 5 7 12 9 10 10 10 8 8 6 4 2 1 2 3 2 5 7 6 7 7 7 8 7 6 6 7 6 5 5 7 7 7 7 6 7 6 7 6 5 5
4 4 2 3 3 3 6 4 4 7 6 3 12 11 10 9 7 6 6 5 3 1 2 4 6 6 6 7 8 8 8 8 8 7 6 7 6 6 6 7 7 6 8 7 6 6 6 6 5
6 2 3 5 2 2 4 6 4 7 7 4 4 10 9 8 7 7 6 3 1 5 6 6 6 6 7 7 8 7 8 4 5 6 7 8 8 9 8 11 9 11 12 13 10 8 6 6 6
3 3 3 4 8 4 5 3 4 4 5 4 5 8 7 7 6 6 6 4 5 5 6 5 6 7 7 8 6 7 7 7 8 9 10 9 9 10 12 11 12 12 14 13 11 8 7 8 10
3 5 2 2 3 4 4 6 3 4 5 4 5 6 6 5 6 4 3 5 4 4 4 6 6 7 7 7 6 7 7 7 9 10 11 12 12 12 13 14 15 15 13 9 9 10 11 11 12
3 3 4 1 2 3 4 2 2 7 3 9 8 9 9 10 9 8 7 3 4 5 5 5 6 7 7 7 7 7 7 9 10 10 10 11 12 13 13 14 15 15 16 15 13 14 14 11 15
3 5 3 2 4 3 2 7 9 8 7 8 8 7 7 4 1 6 3 3 6 5 6 6 6 7 7 7 7 8 10 10 10 11 13 11 12 13 14 14 15 16 17 16 17 16 15 14 15
Wind_Direction
303 301 255 291 352 74 107 69 56 42 34 68 12 86 66 61 39 77 161 77 112 117 124 141 134 118 131 126 106 81 88 78 67 48 43 38 42 44 46 61 60 61 56 54 44 45 66 58 69
297 295 234 286 84 348 74 81 71 61 0 95 31 84 70 55 82 93 86 104 128 125 153 130 144 123 118 127 93 69 47 29 52 46 36 25 32 30 28 65 60 62 59 58 49 44 48 44 90
258 266 265 167 149 212 78 55 91 77 32 360 95 64 51 338 46 87 114 114 120 107 90 120 130 117 99 88 88 72 45 39 30 47 26 23 32 23 20 40 52 43 49 50 47 44 42 37 84
327 225 250 73 82 44 80 52 21 31 52 7 88 86 101 357 19 76 109 126 104 100 100 117 118 113 57 69 74 66 40 43 35 35 27 28 35 18 23 20 23 25 25 40 32 30 25 39 89
216 258 271 96 93 86 69 66 9 66 70 18 21 85 83 352 29 86 82 104 119 106 118 129 134 133 127 108 104 87 360 98 55 27 26 18 23 21 10 10 9 10 7 18 15 12 8 34 30
295 233 293 120 113 99 65 37 21 38 69 16 37 85 70 20 360 80 125 89 98 92 120 146 158 158 167 166 167 198 256 146 126 47 19 355 352 0 359 355 355 359 357 358 0 3 8 25 345
282 344 8 109 110 75 39 22 23 33 31 32 330 90 112 34 324 309 49 96 97 123 150 149 168 178 177 169 179 192 214 167 157 214 244 272 282 277 271 290 312 339 343 340 339 346 11 7 356
283 284 196 22 164 96 57 81 16 10 54 359 7 26 46 342 296 196 141 114 135 126 3 28 163 168 181 177 187 184 184 173 183 217 227 228 239 245 235 234 234 236 300 313 321 314 313 339 336
254 290 28 61 55 111 80 12 92 88 90 62 58 58 27 319 338 353 158 57 44 30 19 2 356 73 44 3 153 162 185 237 212 218 232 223 222 214 223 203 170 218 273 284 283 278 267 267 271
290 8 44 27 43 98 89 26 342 125 122 79 56 54 41 25 39 33 28 41 43 26 6 3 348 357 7 91 113 103 48 297 314 334 247 257 268 136 148 157 188 213 243 265 271 267 264 260 247
37 93 127 55 44 8 354 109 1 96 87 52 69 55 61 69 51 54 48 55 68 49 16 3 357 5 7 44 52 41 19 357 14 359 12 356 4 323 193 186 186 202 217 234 229 238 232 241 238
126 50 7 89 68 260 244 101 86 24 88 114 85 42 80 78 69 73 63 63 61 63 28 15 16 27 28 47 58 40 27 18 10 9 8 1 339 358 356 342 272 187 161 210 224 211 215 224 260
101 129 100 108 180 61 115 79 116 118 135 134 145 89 79 80 86 62 84 77 67 58 41 23 23 33 41 43 40 68 87 54 5 15 23 20 10 354 347 342 340 335 291 214 257 264 248 236 223
84 122 132 158 142 130 124 136 165 158 165 154 150 129 81 75 89 80 62 82 79 64 49 29 31 36 39 34 42 47 14 29 63 46 54 55 36 360 354 336 332 323 352 344 340 313 255 248 225
159 163 181 180 166 175 231 186 224 145 183 168 165 126 130 137 101 87 77 58 95 85 67 30 35 26 30 25 27 36 35 19 16 11 19 30 17 357 327 297 313 324 334 335 323 325 329 318 297
227 221 205 180 176 133 156 287 138 157 186 182 178 138 157 145 122 109 83 76 45 66 81 69 36 39 27 21 18 11 17 6 12 3 16 14 354 1 355 348 322 273 265 321 324 322 312 308 292
199 244 229 168 190 147 179 257 152 174 198 195 180 146 171 168 112 107 108 79 64 69 56 55 41 27 37 12 21 10 6 360 3 7 2 349 357 351 357 339 323 325 305 245 262 289 297 316 314
329 259 311 235 189 214 215 237 170 181 193 206 205 166 166 164 171 140 111 107 69 43 75 65 59 32 31 23 18 6 0 339 358 351 334 324 340 335 344 327 312 311 320 315 261 245 267 276 279
330 305 297 297 112 179 247 264 250 178 187 214 209 195 179 187 137 151 160 185 177 139 60 26 52 28 29 24 6 360 330 321 340 324 307 308 317 316 326 309 297 301 302 281 284 271 250 273 298
300 284 282 124 131 168 269 274 238 171 181 194 204 212 188 182 148 173 173 199 243 353 69 40 20 14 0 11 293 279 278 297 291 286 297 301 311 296 289 293 283 277 280 289 298 293 287 258 208
259 261 298 337 21 229 251 275 248 181 164 186 214 199 207 183 176 181 184 191 166 218 236 71 358 319 316 307 336 328 331 322 321 296 298 287 284 290 275 268 268 283 279 263 267 273 271 260 246
289 17 11 323 321 278 137 288 266 147 157 186 197 217 210 178 184 225 74 82 352 344 351 122 291 331 308 344 349 320 287 288 270 284 274 286 284 293 290 277 268 264 257 259 247 253 248 282 274
57 359 323 311 291 301 254 219 308 127 192 202 201 202 206 179 183 199 200 142 27 5 10 27 332 297 322 332 303 290 286 278 278 288 300 297 289 276 274 280 277 272 263 252 253 270 269 248 258
46 279 243 247 246 254 230 170 199 178 205 191 189 192 193 191 190 183 116 136 226 129 64 329 307 288 299 295 298 299 290 287 293 288 289 291 284 286 287 291 298 287 274 257 247 240 234 251 257
219 277 276 229 191 255 67 189 291 114 86 23 175 176 179 170 165 162 183 211 169 40 273 256 266 286 294 309 300 295 293 296 298 303 303 304 303 296 287 283 277 287 288 283 278 260 244 236 239
200 328 307 303 9 358 74 234 209 89 77 63 95 150 147 153 163 176 193 207 187 257 254 267 284 299 299 295 299 297 302 304 306 305 305 300 296 294 295 292 274 275 275 274 273 271 256 252 246
114 208 3 299 263 267 234 178 92 109 91 108 113 122 146 161 168 185 192 218 231 252 263 295 308 293 298 301 314 317 319 313 301 302 305 302 301 305 308 309 299 291 279 265 272 273 264 265 275
276 338 256 225 270 283 313 344 90 160 149 178 160 166 164 159 196 182 224 247 254 274 299 296 295 304 308 315 316 314 308 309 310 312 310 308 307 306 308 306 305 299 285 277 267 270 266 258 261
163 226 215 294 258 271 320 250 111 125 117 175 187 196 188 185 191 200 208 256 287 282 288 312 326 320 316 314 315 314 312 311 305 298 300 299 296 295 294 299 299 299 299 296 277 268 254 255 262
328 318 335 190 308 300 217 268 58 81 86 37 29 26 46 46 235 183 157 251 267 311 326 326 322 317 314 319 320 315 307 300 302 301 293 296 315 322 314 304 299 299 297 294 289 283 285 271 264